Regional Weather Roundup
Issued by NWS Memphis, TN

Home | Current Version | Previous Version | Text Only | Print | Product List | Glossary On
Versions: 1 2 3 4 5 6 7 8 9 10 11 12 13 14 15 16 17 18 19 20 21 22 23 24 25 26 27 28 29 30 31 32 33 34 35 36 37 38 39 40 41 42 43 44 45 46 47 48 49 50
000
ASUS44 KMEG 031310
RWRMEG
MEMPHIS CWA HOURLY WEATHER ROUNDUP
NATIONAL WEATHER SERVICE MEMPHIS TN
800 AM CDT THU SEP 03 2015

...WEST TENNESSEE...

CITY           SKY/WX    TMP DP  RH WIND       PRES   REMARKS
MEMPHIS INTL   MOSUNNY   77  72  84 CALM      30.04R
NWS MEMPHIS      N/A     73 N/A N/A MISG        N/A
JACKSON        SUNNY     74  71  91 CALM      30.05R
LEXINGTON      SUNNY     72  72 100 CALM      30.05R
DYERSBURG      SUNNY     73  72  94 CALM      30.05S
UNION CITY     SUNNY    N/A N/A N/A CALM      30.04R
PARIS          SUNNY     72  68  88 CALM      30.06R


...EASTERN ARKANSAS...

CITY           SKY/WX    TMP DP  RH WIND       PRES   REMARKS
JONESBORO      SUNNY     73  71  93 SE3       30.03R
WEST MEMPHIS   MOSUNNY   74  74 100 CALM      30.03R FOG
BATESVILLE     CLOUDY    70  68  94 CALM      30.04R VSB 1/4
NEWPORT        SUNNY     76  72  87 CALM      30.04R
WALNUT RIDGE   SUNNY     72  68  88 SW3       30.04R
BLYTHEVILLE    SUNNY     75  73  93 CALM      30.04R
SEARCY         SUNNY     72  71  97 CALM      30.05R
STUTTGART      SUNNY     73  68  83 CALM      30.03R
PINE BLUFF     SUNNY     72  70  93 CALM      30.03R FOG
MONTICELLO     SUNNY     73  73 100 CALM      30.02R FOG


...NORTH MISSISSIPPI...

CITY           SKY/WX    TMP DP  RH WIND       PRES   REMARKS
TUPELO         SUNNY     75  72  90 NE5       30.04R
OXFORD         SUNNY     70  68  94 CALM      30.07R
OLIVE BRANCH   MOSUNNY   72  72 100 CALM      30.05R
TUNICA           N/A    N/A N/A N/A MISG        N/A
CLARKSDALE     CLOUDY    72  72 100 CALM      30.05R VSB<1/4
CORINTH        FOG       70  68  94 CALM      30.04S VSB 1
GREENWOOD      SUNNY     73  69  87 NE3       30.03R
COLUMBUS       FOG       75  74  96 CALM      30.02R VSB<1/4
STARKVILLE     FAIR      72  72 100 CALM      30.04R
GOLDEN TRIANGL FOG       73  68  83 CALM      30.02R VSB 1


...SOUTHEAST MISSOURI...

CITY           SKY/WX    TMP DP  RH WIND       PRES   REMARKS
WEST PLAINS    SUNNY     70  66  87 CALM      30.07R
POPLAR BLUFF   MOSUNNY   72  69  90 CALM      30.03R FOG
CAPE GIRARDEAU SUNNY     72  69  90 CALM      30.04R FOG


...NORTHWEST ALABAMA...

CITY           SKY/WX    TMP DP  RH WIND       PRES   REMARKS
MUSCLE SHOALS  MOSUNNY   74  72  93 CALM      30.05S FOG


...MIDDLE TENNESSEE...

CITY           SKY/WX    TMP DP  RH WIND       PRES   REMARKS
NASHVILLE      MOSUNNY   78  71  79 CALM      30.05R
CLARKSVILLE    SUNNY     74  68  81 CALM      30.05R
COLUMBIA       SUNNY     75  75 100 CALM      30.04R


...WESTERN KENTUCKY...

CITY           SKY/WX    TMP DP  RH WIND       PRES   REMARKS
PADUCAH        SUNNY     73  69  87 CALM      30.04R FOG
FORT CAMPBELL  SUNNY     73  68  85 CALM      30.05R


...CENTRAL ARKANSAS...

CITY           SKY/WX    TMP DP  RH WIND       PRES   REMARKS
LITTLE ROCK    MOSUNNY   75  71  87 CALM      30.03R FOG


SKY/WX REPORTED AS FAIR MEANS FEW OR NO CLOUDS BELOW
12 THOUSAND FEET.




USA.gov is the U.S. government's official web portal to all federal, state and local government web resources and services.